User: anonymous   Login
Location: B
(0.0000°N, 0.0000°E)
Time: 07:03:24
(UTC+02:00)
Language:

Cosmos 1025 Rocket - Orbit

View from above orbital plane
View from above orbital plane
View from above satellite
View from above satellite

Ground track
Ground track

The orbit data is extracted from the following two-line orbital elements,

1 10974U 78067B   15110.37843376  .00000747  00000-0  80560-4 0  9999
2 10974 082.4845 196.1306 0019076 078.3607 281.9749 14.86949325990339
Epoch (UTC): 20 April 2015 09:04:56
Eccentricity: 0.0019076
inclination: 82.4845°
perigee height: 594 km
apogee height: 621 km
right ascension of ascending node: 196.1306°
argument of perigee: 78.3607°
revolutions per day: 14.86949325
mean anomaly at epoch: 281.9749°
orbit number at epoch: 99033

The dashed part of the orbit path shows where the satellite is in the earth's shadow,  

DLR